Location: Warszawa
(52.2500°N, 21.0000°E)
Time: 00:19:20
(UTC+01:00)

A-11 Canister half - Pass Details

Date: 15 February 2023
Orbit: 1526 x 1682 km, 47.3° (Epoch: 22 March)

Event Time Altitude Azimuth Distance (km) Brightness Sun altitude
Exits shadow 05:44:33 12° 265° (W) 3,525 10.3 -10.9°
Maximum altitude 05:53:08 64° 188° (S) 1,667 9.2 -9.6°
Drops below altitude 10° 06:02:22 10° 110° (ESE) 3,734 12.7 -8.2°
Sets 06:05:29 0° 107° (ESE) 4,734 14.0 -7.7°
